• In Deutschland
  • Länderverzeichnis
  • Für 7 Tage
  • Wassertemperatur
  • Satellitenkarten
  • Wetterkarte
  • Widgets
  • user-avatar
    Anmelden

    Stündliche Wetter Übach-Palenberg

    Heute, 19 Februar, Montag

    Zeit Temperatur Niederschläge Wind Luftdruck Luftfeuchtigkeit
    00:00 -2°C° 0 mm 2 m/S 757 mmHg 80%
    01:00 -2°C° 0 mm 2 m/S 757 mmHg 79%
    02:00 -2°C° 0 mm 2 m/S 756 mmHg 78%
    03:00 -2°C° 0 mm 2 m/S 756 mmHg 77%
    04:00 -1°C° 0 mm 2 m/S 756 mmHg 76%
    05:00 -1°C° 0 mm 2 m/S 756 mmHg 75%
    06:00 -1°C° 0 mm 2 m/S 755 mmHg 73%
    07:00 +1°C° 0 mm 2 m/S 755 mmHg 70%
    08:00 +2°C° 0 mm 2 m/S 755 mmHg 67%
    09:00 +2°C° 0 mm 2 m/S 755 mmHg 63%
    10:00 +3°C° 0 mm 2 m/S 755 mmHg 60%
    11:00 +5°C° 0 mm 1 m/S 754 mmHg 56%
    12:00 +6°C° 0 mm 1 m/S 754 mmHg 52%
    13:00 +6°C° 0 mm 1 m/S 754 mmHg 53%
    14:00 +6°C° 0 mm 1 m/S 753 mmHg 53%
    15:00 +6°C° 0 mm 0 m/S 753 mmHg 54%
    16:00 +6°C° 0,1 mm 1 m/S 753 mmHg 57%
    17:00 +5°C° 0,1 mm 1 m/S 753 mmHg 61%
    18:00 +4°C° 0,1 mm 1 m/S 753 mmHg 65%
    19:00 +4°C° 0,1 mm 1 m/S 753 mmHg 67%
    20:00 +4°C° 0,1 mm 1 m/S 752 mmHg 70%
    21:00 +3°C° 0,1 mm 1 m/S 752 mmHg 72%
    22:00 +3°C° 0,1 mm 1 m/S 752 mmHg 74%
    23:00 +3°C° 0,1 mm 1 m/S 752 mmHg 75%

    Morgen, 20 Februar, Dienstag

    Zeit Temperatur Niederschläge Wind Luftdruck Luftfeuchtigkeit
    00:00 +3°C° 0,1 mm 1 m/S 752 mmHg 77%
    01:00 +3°C° 0 mm 1 m/S 752 mmHg 78%
    02:00 +2°C° 0 mm 1 m/S 752 mmHg 79%
    03:00 +2°C° 0 mm 1 m/S 752 mmHg 80%
    04:00 +2°C° 0 mm 1 m/S 752 mmHg 81%
    05:00 +1°C° 0 mm 1 m/S 752 mmHg 81%
    06:00 +1°C° 0 mm 1 m/S 752 mmHg 82%
    07:00 +2°C° 0 mm 1 m/S 752 mmHg 77%
    08:00 +2°C° 0 mm 2 m/S 752 mmHg 73%
    09:00 +3°C° 0 mm 2 m/S 752 mmHg 68%
    10:00 +4°C° 0 mm 2 m/S 752 mmHg 63%
    11:00 +5°C° 0 mm 2 m/S 752 mmHg 58%
    12:00 +6°C° 0 mm 2 m/S 752 mmHg 53%
    13:00 +5°C° 0 mm 3 m/S 753 mmHg 53%
    14:00 +5°C° 0 mm 3 m/S 753 mmHg 52%
    15:00 +5°C° 0 mm 4 m/S 753 mmHg 52%
    16:00 +4°C° 0 mm 4 m/S 753 mmHg 57%
    17:00 +1°C° 0 mm 4 m/S 754 mmHg 61%
    18:00 +1°C° 0 mm 3 m/S 755 mmHg 65%
    19:00 +1°C° 0 mm 3 m/S 755 mmHg 67%
    20:00 0°C° 0 mm 3 m/S 756 mmHg 69%
    21:00 0°C° 0 mm 3 m/S 756 mmHg 72%
    22:00 -1°C° 0 mm 3 m/S 757 mmHg 74%
    23:00 -1°C° 0 mm 3 m/S 757 mmHg 76%

    übermorgen, 21 Februar, Mittwoch

    Zeit Temperatur Niederschläge Wind Luftdruck Luftfeuchtigkeit
    00:00 -2°C° 0 mm 3 m/S 757 mmHg 79%
    01:00 -2°C° 0 mm 2 m/S 758 mmHg 80%
    02:00 -2°C° 0 mm 2 m/S 758 mmHg 81%
    03:00 -2°C° 0 mm 2 m/S 758 mmHg 82%
    04:00 -3°C° 0 mm 2 m/S 758 mmHg 82%
    05:00 -3°C° 0 mm 2 m/S 758 mmHg 83%
    06:00 -3°C° 0 mm 2 m/S 758 mmHg 83%
    07:00 -2°C° 0 mm 2 m/S 758 mmHg 77%
    08:00 -1°C° 0 mm 2 m/S 759 mmHg 71%
    09:00 0°C° 0 mm 3 m/S 759 mmHg 65%
    10:00 +1°C° 0 mm 3 m/S 758 mmHg 60%
    11:00 +2°C° 0 mm 3 m/S 758 mmHg 55%
    12:00 +3°C° 0 mm 3 m/S 758 mmHg 50%
    13:00 +3°C° 0 mm 4 m/S 758 mmHg 50%
    14:00 +4°C° 0 mm 4 m/S 757 mmHg 50%
    15:00 +4°C° 0 mm 4 m/S 757 mmHg 50%
    16:00 +1°C° 0 mm 4 m/S 757 mmHg 56%
    17:00 +1°C° 0 mm 3 m/S 757 mmHg 61%
    18:00 0°C° 0 mm 3 m/S 757 mmHg 67%
    19:00 -1°C° 0 mm 3 m/S 757 mmHg 69%
    20:00 -1°C° 0 mm 3 m/S 757 mmHg 71%
    21:00 -2°C° 0 mm 3 m/S 757 mmHg 72%
    22:00 -2°C° 0 mm 3 m/S 757 mmHg 74%
    23:00 -2°C° 0 mm 3 m/S 757 mmHg 75%

    22 Februar, Donnerstag

    Zeit Temperatur Niederschläge Wind Luftdruck Luftfeuchtigkeit
    00:00 -2°C° 0 mm 2 m/S 757 mmHg 76%
    01:00 -2°C° 0 mm 3 m/S 757 mmHg 77%
    02:00 -4°C° 0 mm 3 m/S 756 mmHg 77%
    03:00 -4°C° 0 mm 3 m/S 756 mmHg 78%
    04:00 -4°C° 0 mm 3 m/S 756 mmHg 78%
    05:00 -4°C° 0 mm 3 m/S 756 mmHg 78%
    06:00 -4°C° 0 mm 3 m/S 756 mmHg 78%
    07:00 -3°C° 0 mm 4 m/S 757 mmHg 73%
    08:00 -2°C° 0 mm 4 m/S 757 mmHg 67%
    09:00 -1°C° 0 mm 5 m/S 757 mmHg 61%
    10:00 0°C° 0 mm 5 m/S 756 mmHg 55%
    11:00 +1°C° 0 mm 5 m/S 756 mmHg 49%
    12:00 +1°C° 0 mm 6 m/S 756 mmHg 43%
    13:00 +1°C° 0 mm 6 m/S 756 mmHg 42%
    14:00 +2°C° 0 mm 6 m/S 755 mmHg 41%
    15:00 +2°C° 0 mm 6 m/S 755 mmHg 41%
    16:00 +1°C° 0 mm 6 m/S 755 mmHg 45%
    17:00 -1°C° 0 mm 5 m/S 756 mmHg 49%
    18:00 -2°C° 0 mm 4 m/S 756 mmHg 54%
    19:00 -2°C° 0 mm 4 m/S 756 mmHg 57%
    20:00 -2°C° 0 mm 4 m/S 756 mmHg 60%
    21:00 -3°C° 0 mm 4 m/S 756 mmHg 63%
    22:00 -3°C° 0 mm 4 m/S 756 mmHg 65%
    23:00 -3°C° 0 mm 4 m/S 756 mmHg 67%

    23 Februar, Freitag

    Zeit Temperatur Niederschläge Wind Luftdruck Luftfeuchtigkeit
    00:00 -3°C° 0 mm 4 m/S 756 mmHg 69%
    01:00 -4°C° 0 mm 4 m/S 756 mmHg 72%
    02:00 -4°C° 0 mm 4 m/S 756 mmHg 74%
    03:00 -4°C° 0 mm 3 m/S 755 mmHg 77%
    04:00 -4°C° 0 mm 4 m/S 755 mmHg 78%
    05:00 -4°C° 0 mm 4 m/S 755 mmHg 79%
    06:00 -4°C° 0 mm 4 m/S 756 mmHg 81%
    07:00 -3°C° 0 mm 4 m/S 756 mmHg 75%
    08:00 -4°C° 0 mm 5 m/S 756 mmHg 70%
    09:00 -2°C° 0 mm 5 m/S 756 mmHg 65%
    10:00 -1°C° 0 mm 5 m/S 756 mmHg 60%
    11:00 -1°C° 0 mm 5 m/S 756 mmHg 55%
    12:00 0°C° 0 mm 5 m/S 756 mmHg 50%
    13:00 0°C° 0 mm 5 m/S 756 mmHg 48%
    14:00 0°C° 0 mm 5 m/S 755 mmHg 46%
    15:00 +1°C° 0 mm 6 m/S 755 mmHg 44%
    16:00 0°C° 0 mm 5 m/S 756 mmHg 47%
    17:00 -2°C° 0 mm 5 m/S 756 mmHg 51%
    18:00 -4°C° 0 mm 5 m/S 756 mmHg 54%
    19:00 -3°C° 0 mm 4 m/S 757 mmHg 55%
    20:00 -3°C° 0 mm 4 m/S 757 mmHg 57%
    21:00 -4°C° 0 mm 4 m/S 758 mmHg 59%
    22:00 -4°C° 0 mm 4 m/S 758 mmHg 59%
    23:00 -4°C° 0 mm 4 m/S 758 mmHg 59%

    24 Februar, Samstag

    Zeit Temperatur Niederschläge Wind Luftdruck Luftfeuchtigkeit
    00:00 -5°C° 0 mm 4 m/S 758 mmHg 59%
    01:00 -5°C° 0 mm 4 m/S 758 mmHg 58%
    02:00 -5°C° 0 mm 4 m/S 759 mmHg 58%
    03:00 -5°C° 0 mm 4 m/S 759 mmHg 57%
    04:00 -5°C° 0 mm 4 m/S 759 mmHg 57%
    05:00 -5°C° 0 mm 4 m/S 759 mmHg 56%
    06:00 -7°C° 0 mm 4 m/S 760 mmHg 56%
    07:00 -5°C° 0 mm 4 m/S 760 mmHg 54%
    08:00 -4°C° 0 mm 4 m/S 761 mmHg 52%
    09:00 -5°C° 0 mm 5 m/S 761 mmHg 49%
    10:00 -4°C° 0 mm 5 m/S 761 mmHg 46%
    11:00 -4°C° 0 mm 5 m/S 761 mmHg 43%
    12:00 -2°C° 0 mm 5 m/S 761 mmHg 39%
    13:00 -2°C° 0 mm 5 m/S 761 mmHg 38%
    14:00 -2°C° 0 mm 5 m/S 760 mmHg 37%
    15:00 -2°C° 0 mm 5 m/S 760 mmHg 36%
    16:00 -4°C° 0 mm 5 m/S 760 mmHg 37%
    17:00 -5°C° 0 mm 5 m/S 761 mmHg 39%
    18:00 -5°C° 0 mm 4 m/S 761 mmHg 40%
    19:00 -7°C° 0 mm 4 m/S 762 mmHg 41%
    20:00 -7°C° 0 mm 4 m/S 762 mmHg 41%
    21:00 -7°C° 0 mm 4 m/S 762 mmHg 42%
    22:00 -8°C° 0 mm 4 m/S 762 mmHg 43%
    23:00 -8°C° 0 mm 4 m/S 762 mmHg 45%
    Mehr zeigen